FW6732 Weather Reports


Display with metric or nautical units.
time (UTC)temp
F
wind
direction
speed
MPH
gust
MPH
rain 1hr
in
rain 24hr
in
rain mn
in
humidity
%
barometer
mb
20260510130505 63 0 0.0 0.0 0.00 0.00 0.00 85 1016.2
20260510130005 63 0 0.0 0.0 0.00 0.00 0.00 85 1016.2
20260510125505 63 21 0.0 1.0 0.00 0.00 0.00 84 1016.2
20260510125005 63 21 0.0 1.0 0.00 0.00 0.00 84 1016.2
20260510124505 63 0 0.0 0.0 0.00 0.00 0.00 84 1016.1
20260510124005 63 0 0.0 0.0 0.00 0.00 0.00 84 1015.8
20260510123505 63 0 0.0 0.0 0.00 0.00 0.00 83 1015.5
20260510123005 63 0 0.0 0.0 0.00 0.00 0.00 83 1015.3
20260510122505 63 0 0.0 0.0 0.00 0.00 0.00 83 1015.1
20260510122005 63 0 0.0 0.0 0.00 0.00 0.00 82 1014.7
20260510121504 63 0 0.0 0.0 0.00 0.00 0.00 82 1014.6
20260510121026 62 0 0.0 0.0 0.00 0.00 0.00 82 1014.5
20260510120505 62 0 0.0 0.0 0.00 0.01 0.00 81 1014.3
20260510120005 62 0 0.0 0.0 0.00 0.01 0.00 80 1014.3
20260510115525 62 0 0.0 0.0 0.00 0.01 0.00 80 1014.0
20260510115005 62 0 0.0 0.0 0.00 0.01 0.00 79 1013.7
20260510114505 63 0 0.0 0.0 0.00 0.01 0.00 79 1013.7
20260510114005 63 0 0.0 0.0 0.00 0.01 0.00 79 1013.5
20260510113525 63 0 0.0 0.0 0.00 0.01 0.00 79 1013.7
20260510113026 63 0 0.0 0.0 0.00 0.01 0.00 79 1013.5
20260510112526 63 0 0.0 0.0 0.00 0.01 0.00 78 1013.3
20260510112005 63 0 0.0 0.0 0.00 0.01 0.00 78 1013.2
20260510111504 63 0 0.0 0.0 0.00 0.01 0.00 77 1013.2
20260510111005 64 0 0.0 0.0 0.00 0.01 0.00 77 1013.2
20260510110505 64 0 0.0 0.0 0.00 0.01 0.00 77 1013.1
20260510110005 64 0 0.0 0.0 0.00 0.01 0.00 77 1013.1
20260510105504 64 0 0.0 0.0 0.00 0.01 0.00 76 1013.1
20260510105005 64 0 0.0 0.0 0.00 0.01 0.00 76 1013.0
20260510104505 64 0 0.0 0.0 0.00 0.01 0.00 76 1012.8
20260510104025 64 0 0.0 0.0 0.00 0.01 0.00 76 1012.7
20260510103505 64 0 0.0 0.0 0.00 0.01 0.00 76 1012.7
20260510103004 64 0 0.0 0.0 0.00 0.01 0.00 76 1012.8
20260510102505 65 0 0.0 0.0 0.00 0.01 0.00 76 1012.8
20260510102004 65 0 0.0 0.0 0.00 0.01 0.00 75 1012.9
20260510101504 65 0 0.0 0.0 0.00 0.01 0.00 75 1012.8
20260510101004 65 0 0.0 0.0 0.00 0.01 0.00 75 1012.6
20260510100505 65 0 0.0 0.0 0.00 0.01 0.00 75 1012.5
20260510100025 65 0 0.0 0.0 0.00 0.01 0.00 74 1012.4
20260510095525 65 0 0.0 0.0 0.00 0.01 0.00 75 1012.4
20260510095025 66 0 0.0 0.0 0.00 0.01 0.00 74 1012.4
20260510094504 66 0 0.0 0.0 0.00 0.01 0.00 74 1012.4
20260510094004 66 0 0.0 0.0 0.00 0.01 0.00 74 1012.4
20260510093504 66 0 0.0 0.0 0.00 0.01 0.00 74 1012.4
20260510093004 66 0 0.0 0.0 0.00 0.01 0.00 73 1012.2
20260510092504 66 0 0.0 0.0 0.00 0.01 0.00 73 1012.1
20260510092004 67 0 0.0 0.0 0.00 0.01 0.00 72 1012.1
20260510091504 67 0 0.0 0.0 0.00 0.01 0.00 72 1012.1
20260510091004 67 0 0.0 0.0 0.00 0.01 0.00 71 1012.1
20260510090504 67 0 0.0 0.0 0.00 0.01 0.00 71 1012.2
20260510090004 67 0 0.0 0.0 0.00 0.01 0.00 71 1011.9
20260510085504 68 0 0.0 0.0 0.00 0.01 0.00 71 1011.8
20260510085004 68 0 0.0 0.0 0.00 0.01 0.00 71 1011.5
20260510084504 68 0 0.0 0.0 0.00 0.01 0.00 71 1011.4
20260510084025 68 0 0.0 0.0 0.00 0.01 0.00 71 1011.3
20260510083504 68 21 0.0 2.0 0.00 0.01 0.00 71 1011.3
20260510083004 68 21 0.0 2.0 0.00 0.01 0.00 70 1011.1
20260510082504 68 0 0.0 0.0 0.00 0.01 0.00 70 1010.9
20260510082004 68 21 0.0 3.0 0.00 0.01 0.00 70 1010.5
20260510081504 68 21 0.0 3.0 0.00 0.01 0.00 70 1010.3
20260510081005 68 21 0.0 2.0 0.00 0.01 0.00 70 1010.2
20260510080504 69 357 1.0 5.0 0.00 0.01 0.00 70 1010.4
20260510080004 69 2 1.0 5.0 0.00 0.01 0.00 70 1010.6
20260510075525 69 40 1.0 4.0 0.00 0.01 0.00 70 1010.7
20260510075004 69 82 0.0 4.0 0.00 0.01 0.00 69 1010.4
20260510074504 69 65 0.0 4.0 0.00 0.01 0.00 69 1010.1
20260510074004 69 61 1.0 2.0 0.00 0.01 0.00 69 1009.7
20260510073504 69 40 1.0 3.0 0.00 0.01 0.00 69 1009.2
20260510073004 69 96 2.0 4.0 0.00 0.01 0.00 69 1008.8
20260510072504 69 111 2.0 4.0 0.00 0.01 0.00 68 1008.4
20260510072004 69 109 1.0 4.0 0.00 0.01 0.00 68 1008.9
20260510071525 69 127 1.0 3.0 0.00 0.01 0.00 67 1010.3
20260510071004 69 177 0.0 3.0 0.00 0.01 0.00 66 1011.4
20260510070504 69 174 0.0 2.0 0.00 0.01 0.00 65 1011.4
20260510070004 69 100 1.0 6.0 0.00 0.01 0.00 65 1011.4
20260510065504 69 104 1.0 6.0 0.00 0.01 0.00 65 1010.7
20260510065004 70 148 1.0 3.0 0.00 0.01 0.00 65 1011.0
20260510064504 70 132 2.0 6.0 0.00 0.01 0.00 65 1010.9
20260510064004 70 153 2.0 6.0 0.00 0.01 0.00 65 1010.7
20260510063504 70 177 2.0 4.0 0.00 0.01 0.00 66 1011.5
20260510063004 70 359 1.0 4.0 0.00 0.01 0.00 67 1013.0
20260510062504 70 40 0.0 4.0 0.00 0.01 0.00 69 1013.5
20260510062004 70 360 0.0 2.0 0.00 0.01 0.00 68 1013.0
20260510061505 70 360 0.0 2.0 0.00 0.01 0.00 68 1013.0
20260510061025 70 359 1.0 3.0 0.00 0.01 0.00 68 1013.0
20260510060504 70 358 1.0 3.0 0.00 0.01 0.00 67 1013.0
20260510060025 70 348 0.0 2.0 0.00 0.01 0.00 67 1013.0
20260510055525 70 0 0.0 0.0 0.00 0.01 0.00 65 1012.9
20260510055004 70 0 0.0 0.0 0.00 0.01 0.00 65 1013.0
20260510054504 70 0 0.0 0.0 0.00 0.01 0.00 65 1013.2
20260510054004 70 0 0.0 0.0 0.00 0.01 0.00 65 1013.3
20260510053504 70 0 0.0 0.0 0.00 0.01 0.00 65 1013.3
20260510053004 70 0 0.0 0.0 0.00 0.01 0.00 65 1013.4
20260510052504 70 0 0.0 0.0 0.00 0.01 0.00 65 1013.5
20260510052004 70 348 0.0 2.0 0.00 0.01 0.00 66 1013.4
20260510051504 70 348 0.0 2.0 0.00 0.01 0.00 66 1013.6
20260510051004 70 349 0.0 5.0 0.00 0.01 0.00 68 1013.4
20260510050504 70 346 1.0 5.0 0.00 0.01 0.00 69 1013.4
20260510050006 70 351 1.0 5.0 0.00 0.01 0.00 71 1013.3
20260510045504 70 350 1.0 5.0 0.00 0.01 0.01 74 1013.2
20260510045004 69 345 1.0 3.0 0.00 0.01 0.01 75 1013.0
20260510044504 69 348 1.0 3.0 0.00 0.01 0.01 73 1012.8
20260510044025 69 0 0.0 0.0 0.00 0.01 0.01 71 1012.5
20260510043504 69 0 0.0 0.0 0.00 0.01 0.01 69 1012.3
20260510043004 69 0 0.0 0.0 0.00 0.01 0.01 69 1012.1
20260510042504 69 0 0.0 0.0 0.00 0.01 0.01 68 1012.0
20260510042004 69 0 0.0 0.0 0.00 0.01 0.01 67 1011.9
20260510041504 69 0 0.0 0.0 0.00 0.01 0.01 66 1011.6
20260510041004 69 0 0.0 0.0 0.00 0.01 0.01 66 1011.4
20260510040504 69 0 0.0 0.0 0.00 0.01 0.01 65 1011.4
20260510040004 69 0 0.0 0.0 0.00 0.01 0.01 64 1011.3
20260510035504 69 0 0.0 0.0 0.00 0.01 0.01 64 1011.3
20260510035004 69 0 0.0 0.0 0.00 0.01 0.01 64 1011.3
20260510034504 70 0 0.0 0.0 0.00 0.01 0.01 64 1011.2
20260510034004 70 0 0.0 0.0 0.00 0.01 0.01 64 1011.1
20260510033504 70 0 0.0 0.0 0.00 0.01 0.01 63 1011.1
20260510033004 70 0 0.0 0.0 0.00 0.01 0.01 64 1011.1
20260510032504 70 0 0.0 0.0 0.00 0.01 0.01 63 1011.1
20260510032025 70 0 0.0 0.0 0.00 0.01 0.01 63 1011.1
20260510031504 70 0 0.0 0.0 0.00 0.01 0.01 62 1011.2
20260510031004 70 0 0.0 0.0 0.00 0.01 0.01 62 1011.3
20260510030504 71 0 0.0 0.0 0.00 0.01 0.01 62 1011.2
20260510030004 71 0 0.0 0.0 0.00 0.01 0.01 61 1011.2
20260510025504 71 0 0.0 0.0 0.00 0.01 0.01 61 1011.2
20260510025004 71 0 0.0 0.0 0.00 0.01 0.01 61 1011.0
20260510024504 71 0 0.0 0.0 0.00 0.01 0.01 61 1011.0
20260510024004 72 0 0.0 0.0 0.00 0.01 0.01 60 1010.8
20260510023504 72 0 0.0 0.0 0.00 0.01 0.01 59 1010.6
20260510023004 72 0 0.0 0.0 0.00 0.01 0.01 59 1010.4
20260510022504 73 0 0.0 0.0 0.00 0.01 0.01 59 1010.1
20260510022025 73 0 0.0 0.0 0.00 0.01 0.01 58 1009.9
20260510021504 74 0 0.0 0.0 0.00 0.01 0.01 58 1009.7
20260510021004 74 0 0.0 0.0 0.00 0.01 0.01 57 1009.7
20260510020504 74 0 0.0 0.0 0.00 0.01 0.01 56 1009.4
20260510020004 75 0 0.0 0.0 0.00 0.01 0.01 55 1009.4
20260510015504 75 0 0.0 0.0 0.00 0.01 0.01 55 1009.4
20260510015004 75 0 0.0 0.0 0.00 0.01 0.01 54 1009.3
20260510014504 76 0 0.0 0.0 0.00 0.01 0.01 53 1009.2
20260510014004 76 0 0.0 0.0 0.00 0.01 0.01 51 1009.0
20260510013504 76 0 0.0 0.0 0.00 0.01 0.01 50 1008.9
20260510013004 77 0 0.0 0.0 0.00 0.01 0.01 49 1008.8
20260510012504 77 0 0.0 0.0 0.00 0.01 0.01 48 1008.7
20260510012025 78 0 0.0 0.0 0.00 0.01 0.01 48 1008.6
20260510011504 78 0 0.0 0.0 0.00 0.01 0.01 47 1008.6
20260510011004 78 0 0.0 0.0 0.00 0.01 0.01 47 1008.5
20260510010504 78 0 0.0 0.0 0.00 0.01 0.01 46 1008.5
20260510010004 79 0 0.0 0.0 0.00 0.02 0.01 46 1008.4
20260510005504 79 0 0.0 0.0 0.00 0.02 0.01 45 1008.4
20260510005004 79 0 0.0 0.0 0.00 0.02 0.01 45 1008.4
20260510004504 79 69 0.0 1.0 0.00 0.02 0.01 45 1008.4
20260510004004 79 71 0.0 2.0 0.00 0.02 0.01 45 1008.2
20260510003504 79 72 0.0 2.0 0.00 0.02 0.01 45 1008.2
20260510003025 79 76 0.0 3.0 0.00 0.02 0.01 46 1008.3
20260510002504 79 79 0.0 3.0 0.00 0.02 0.01 45 1008.1
20260510002004 79 71 0.0 1.0 0.00 0.02 0.01 46 1007.9
20260510001504 80 58 0.0 3.0 0.00 0.02 0.01 46 1008.0
20260510001004 80 43 0.0 3.0 0.00 0.02 0.01 44 1008.1
20260510000504 80 114 0.0 2.0 0.00 0.03 0.01 43 1008.1
20260510000004 81 104 0.0 2.0 0.00 0.07 0.01 42 1008.3
20260509235504 81 73 0.0 2.0 0.00 0.13 0.01 40 1008.3
20260509235004 82 94 0.0 2.0 0.00 0.14 0.01 37 1008.3
20260509234525 82 102 0.0 4.0 0.00 0.17 0.01 37 1008.2
20260509234004 82 78 0.0 4.0 0.00 0.25 0.01 35 1008.3
20260509233503 82 68 0.0 4.0 0.00 0.29 0.01 35 1008.4
20260509233004 82 78 0.0 2.0 0.00 0.30 0.01 38 1008.4
20260509232525 83 93 0.0 2.0 0.00 0.30 0.01 37 1008.5
20260509232025 83 109 1.0 3.0 0.00 0.30 0.01 37 1008.5
20260509231504 83 74 0.0 3.0 0.00 0.30 0.01 37 1008.3
20260509231004 83 56 0.0 3.0 0.00 0.30 0.01 40 1008.4
20260509230504 83 84 0.0 3.0 0.00 0.30 0.01 38 1008.5
20260509230025 83 93 0.0 2.0 0.00 0.30 0.01 38 1008.6
20260509225504 84 83 1.0 4.0 0.00 0.30 0.01 40 1008.7
20260509225004 84 95 1.0 4.0 0.00 0.30 0.01 38 1008.7
20260509224504 84 194 1.0 4.0 0.00 0.30 0.01 41 1008.7
20260509224004 83 62 0.0 4.0 0.00 0.30 0.01 38 1008.6
20260509223504 84 67 0.0 3.0 0.00 0.30 0.01 37 1008.7
20260509223004 84 58 0.0 2.0 0.00 0.30 0.01 41 1008.7
20260509222504 84 78 0.0 2.0 0.00 0.30 0.01 42 1008.5
20260509222004 84 87 0.0 3.0 0.00 0.30 0.01 40 1008.5
20260509221504 84 87 0.0 3.0 0.00 0.30 0.01 38 1008.6
20260509221025 84 86 0.0 2.0 0.00 0.30 0.01 37 1008.5
20260509220525 84 76 0.0 3.0 0.00 0.30 0.01 39 1008.6
20260509220004 84 87 0.0 4.0 0.00 0.30 0.01 35 1008.7
20260509215504 84 90 0.0 4.0 0.00 0.30 0.01 34 1008.8
20260509215004 84 69 0.0 2.0 0.00 0.30 0.01 33 1008.8
20260509214504 85 158 1.0 3.0 0.00 0.30 0.01 35 1008.9
20260509214025 85 183 1.0 3.0 0.00 0.30 0.01 40 1008.9
20260509213525 84 139 0.0 3.0 0.00 0.30 0.01 38 1009.0
20260509213025 84 100 0.0 2.0 0.00 0.30 0.01 34 1008.9
20260509212525 85 141 0.0 2.0 0.00 0.30 0.01 39 1008.9
20260509212004 85 103 0.0 3.0 0.00 0.30 0.01 40 1009.0
20260509211504 84 106 0.0 3.0 0.00 0.30 0.01 36 1009.1
20260509211025 84 154 0.0 3.0 0.00 0.30 0.01 35 1009.2
20260509210504 84 176 0.0 3.0 0.00 0.30 0.01 37 1009.3
20260509210004 85 210 0.0 3.0 0.00 0.30 0.01 41 1009.4
20260509205525 85 203 0.0 3.0 0.00 0.30 0.01 36 1009.4
20260509205004 85 161 0.0 2.0 0.00 0.30 0.01 39 1009.4
20260509204504 85 102 0.0 2.0 0.00 0.30 0.01 38 1009.5
20260509204004 85 122 0.0 2.0 0.00 0.30 0.01 39 1009.5
20260509203504 84 70 0.0 3.0 0.00 0.30 0.01 38 1009.6
20260509203025 85 27 0.0 3.0 0.00 0.30 0.01 42 1009.5
20260509202504 85 84 0.0 2.0 0.00 0.30 0.01 40 1009.7
20260509202004 85 82 0.0 2.0 0.00 0.30 0.01 43 1009.6
20260509201504 84 110 0.0 3.0 0.00 0.30 0.01 42 1009.7
20260509201025 85 147 0.0 3.0 0.00 0.30 0.01 38 1009.8
20260509200504 84 259 0.0 2.0 0.00 0.30 0.01 37 1009.8
20260509200004 85 263 0.0 2.0 0.00 0.30 0.01 38 1009.8
20260509195525 86 238 0.0 1.0 0.00 0.30 0.01 40 1009.8
20260509195004 86 288 0.0 3.0 0.00 0.30 0.01 44 1009.9
20260509194504 85 267 0.0 3.0 0.00 0.30 0.01 43 1010.1
20260509194004 85 250 0.0 3.0 0.00 0.30 0.01 45 1010.1
20260509193525 85 241 0.0 3.0 0.00 0.30 0.01 36 1010.2
20260509193004 85 229 0.0 2.0 0.00 0.30 0.01 39 1010.2
20260509192504 84 232 0.0 3.0 0.00 0.30 0.01 42 1010.2
20260509192004 85 233 0.0 3.0 0.00 0.30 0.01 48 1010.4
20260509191504 84 134 0.0 2.0 0.00 0.30 0.01 43 1010.3
20260509191004 84 119 0.0 2.0 0.00 0.30 0.01 44 1010.1
20260509190504 83 93 0.0 3.0 0.00 0.30 0.01 32 1010.2
20260509190004 83 92 1.0 3.0 0.00 0.30 0.01 34 1010.3
20260509185504 83 104 1.0 2.0 0.00 0.30 0.01 39 1010.3
20260509185004 83 199 0.0 3.0 0.00 0.30 0.01 39 1010.3
20260509184504 82 215 1.0 4.0 0.00 0.30 0.01 42 1010.2
20260509184025 83 244 1.0 4.0 0.00 0.30 0.01 46 1010.3
20260509183504 82 290 1.0 3.0 0.00 0.30 0.01 51 1010.4
20260509183025 82 287 1.0 3.0 0.00 0.30 0.01 45 1010.6
20260509182504 82 220 0.0 3.0 0.00 0.30 0.01 49 1010.6
20260509182004 82 187 0.0 3.0 0.00 0.30 0.01 45 1010.7
20260509181504 82 193 0.0 3.0 0.00 0.30 0.01 46 1010.7
20260509181003 82 226 0.0 5.0 0.00 0.30 0.01 49 1010.7
20260509180504 83 215 1.0 5.0 0.00 0.30 0.01 46 1010.9
20260509180004 83 195 1.0 5.0 0.00 0.30 0.01 54 1011.0
20260509175504 83 205 1.0 5.0 0.00 0.30 0.01 54 1011.0
20260509175003 82 225 1.0 4.0 0.00 0.30 0.01 53 1011.1
20260509174503 82 300 1.0 3.0 0.00 0.30 0.01 54 1011.2
20260509174024 82 334 1.0 4.0 0.00 0.30 0.01 58 1011.3
20260509173503 82 301 0.0 4.0 0.00 0.30 0.01 54 1011.4
20260509173004 82 249 0.0 3.0 0.00 0.30 0.01 58 1011.4
20260509172504 81 230 1.0 6.0 0.00 0.30 0.01 61 1011.5
20260509172003 81 207 1.0 6.0 0.00 0.30 0.01 63 1011.5
20260509171503 81 208 1.0 5.0 0.00 0.30 0.01 60 1011.5
20260509171004 80 217 1.0 3.0 0.00 0.30 0.01 62 1011.4
20260509170525 80 216 0.0 3.0 0.00 0.30 0.01 64 1011.5
20260509170004 80 204 0.0 3.0 0.00 0.30 0.01 65 1011.5
20260509165504 79 244 0.0 2.0 0.00 0.30 0.01 68 1011.5
20260509165003 79 248 0.0 2.0 0.00 0.30 0.01 69 1011.6
20260509164504 78 252 0.0 3.0 0.00 0.30 0.01 70 1011.6
20260509164003 78 269 0.0 3.0 0.00 0.30 0.01 72 1011.6
20260509163524 77 355 0.0 2.0 0.00 0.30 0.01 73 1011.8
20260509163004 76 16 0.0 2.0 0.00 0.30 0.01 72 1011.8
20260509162504 76 219 1.0 4.0 0.00 0.30 0.01 74 1011.7
20260509162004 75 211 1.0 5.0 0.00 0.30 0.01 75 1011.6
20260509161504 75 207 1.0 5.0 0.00 0.30 0.01 77 1011.7
20260509161003 74 215 1.0 5.0 0.00 0.30 0.01 82 1011.7
20260509160503 74 294 0.0 2.0 0.00 0.30 0.01 87 1011.5
20260509160004 73 265 0.0 3.0 0.00 0.30 0.01 89 1011.3
20260509155504 72 246 0.0 3.0 0.00 0.30 0.01 90 1011.5
20260509155003 72 0 0.0 0.0 0.00 0.30 0.01 92 1011.4
20260509154504 71 0 0.0 0.0 0.00 0.30 0.01 92 1011.4
20260509154004 71 0 0.0 0.0 0.00 0.30 0.01 93 1011.3
20260509153504 70 0 0.0 0.0 0.00 0.30 0.01 94 1011.3
20260509153004 70 0 0.0 0.0 0.00 0.30 0.01 94 1011.3
20260509152503 69 0 0.0 0.0 0.00 0.30 0.01 94 1011.3
20260509152004 69 0 0.0 0.0 0.00 0.30 0.01 94 1011.3
20260509151525 68 0 0.0 0.0 0.00 0.30 0.01 94 1011.4
20260509151004 68 263 0.0 1.0 0.00 0.30 0.01 94 1011.5
20260509150504 68 263 0.0 3.0 0.00 0.30 0.01 95 1011.4
20260509150004 67 265 1.0 3.0 0.00 0.30 0.01 94 1011.5
20260509145504 67 267 0.0 2.0 0.00 0.30 0.01 94 1011.6
20260509145003 67 304 0.0 3.0 0.00 0.30 0.01 95 1011.5
20260509144504 66 328 0.0 3.0 0.00 0.30 0.01 95 1011.6
20260509144004 66 71 0.0 2.0 0.00 0.30 0.01 95 1011.7
20260509143503 66 71 0.0 2.0 0.00 0.30 0.01 95 1011.6
20260509143024 65 70 0.0 2.0 0.00 0.30 0.01 95 1011.6
20260509142504 64 69 0.0 2.0 0.00 0.30 0.01 95 1011.6
20260509142003 64 68 0.0 1.0 0.00 0.30 0.01 95 1011.6
20260509141503 62 67 0.0 1.0 0.00 0.30 0.01 95 1011.7
20260509141004 62 0 0.0 0.0 0.00 0.30 0.01 95 1011.7
20260509140504 61 0 0.0 0.0 0.00 0.30 0.01 94 1011.6
20260509140005 60 0 0.0 0.0 0.00 0.30 0.01 94 1011.6
20260509135504 60 0 0.0 0.0 0.00 0.30 0.01 94 1011.5
20260509135003 60 67 0.0 1.0 0.00 0.30 0.01 94 1011.3
20260509134524 60 67 0.0 1.0 0.00 0.30 0.01 93 1011.3
20260509134004 60 67 0.0 1.0 0.00 0.30 0.01 93 1011.3
20260509133503 59 67 0.0 1.0 0.00 0.30 0.01 93 1011.2
20260509133025 59 67 0.0 2.0 0.00 0.30 0.01 93 1011.2
20260509132504 59 67 0.0 2.0 0.00 0.30 0.01 94 1011.1
20260509132003 58 67 0.0 1.0 0.00 0.30 0.01 93 1011.0
20260509131504 58 0 0.0 0.0 0.00 0.30 0.01 93 1010.9
20260509131024 57 0 0.0 0.0 0.00 0.30 0.01 93 1010.7